Date,TemperatureHighF,TemperatureAvgF,TemperatureLowF,DewpointHighF,DewpointAvgF,DewpointLowF,HumidityHigh,HumidityAvg,HumidityLow,PressureMaxIn,PressureMinIn,WindSpeedMaxMPH,WindSpeedAvgMPH,GustSpeedMaxMPH,PrecipitationSumIn
2013-1-1,80,73,64,-100,-100,-100,0,0,100,30.18,30.03,10,4,15,0.00
2013-1-2,81,70,59,-100,-100,-100,0,0,100,30.06,29.96,5,2,8,0.00
2013-1-3,81,73,66,-100,-100,-100,0,0,100,30.10,30.00,6,2,10,0.01
2013-1-4,81,72,64,-100,-100,-100,0,0,100,30.20,30.08,5,2,8,0.00
2013-1-5,76,70,64,-100,-100,-100,0,0,100,30.23,30.13,5,2,8,0.17
2013-1-6,81,75,64,-100,-100,-100,0,0,100,30.17,30.03,6,3,11,0.00
2013-1-7,75,71,67,-100,-100,-100,0,0,100,30.15,30.04,7,2,10,0.25
2013-1-8,82,77,73,-100,-100,-100,0,0,100,30.17,30.05,8,4,14,0.12
2013-1-9,83,78,75,-100,-100,-100,0,0,100,30.25,30.14,8,5,16,0.00
2013-1-10,81,77,75,-100,-100,-100,0,0,100,30.27,30.15,10,6,17,0.00
2013-1-11,82,76,74,-100,-100,-100,0,0,100,30.23,30.12,8,5,13,0.01
2013-1-12,81,76,73,-100,-100,-100,0,0,100,30.15,30.06,7,4,13,0.02
2013-1-13,81,76,73,-100,-100,-100,0,0,100,30.09,30.04,9,5,13,0.00
2013-1-14,81,76,72,-100,-100,-100,0,0,100,30.14,30.08,6,4,12,0.00
2013-1-15,79,75,72,-100,-100,-100,0,0,100,30.11,30.02,7,4,11,0.00
2013-1-16,82,75,69,-100,-100,-100,0,0,100,30.07,29.98,5,3,11,0.12
2013-1-17,80,71,60,-100,-100,-100,0,0,100,30.06,29.94,11,4,16,0.80
2013-1-18,72,64,52,-100,-100,-100,0,0,100,30.21,30.07,8,6,12,0.00
2013-1-19,72,69,65,-100,-100,-100,0,0,100,30.19,30.07,5,2,9,0.44
2013-1-20,79,71,63,-100,-100,-100,0,0,100,30.12,29.98,6,2,8,0.17
2013-1-21,80,72,66,-100,-100,-100,0,0,100,30.04,29.93,6,2,10,0.01
2013-1-22,77,69,62,-100,-100,-100,0,0,100,30.19,29.98,11,6,15,0.00
2013-1-23,76,69,60,-100,-100,-100,0,0,100,30.27,30.17,9,5,14,0.00
2013-1-24,76,66,58,-100,-100,-100,0,0,100,30.26,30.16,7,4,11,0.00
2013-1-25,77,66,57,-100,-100,-100,0,0,100,30.26,30.14,7,2,10,0.00
2013-1-26,78,68,57,-100,-100,-100,0,0,100,30.23,30.13,6,2,9,0.00
2013-1-27,79,72,63,-100,-100,-100,0,0,100,30.26,30.17,7,3,11,0.00
2013-1-28,81,75,72,-100,-100,-100,0,0,100,30.28,30.19,8,6,13,0.00
2013-1-29,80,75,73,-100,-100,-100,0,0,100,30.21,30.10,6,4,11,0.00
2013-1-30,80,75,72,-100,-100,-100,0,0,100,30.10,29.94,9,6,15,0.00
2013-1-31,73,67,59,-100,-100,-100,0,0,100,30.16,29.92,10,5,15,0.00
2013-2-1,75,63,53,-100,-100,-100,0,0,100,30.24,30.14,11,6,16,0.00
2013-2-2,75,64,55,-100,-100,-100,0,0,100,30.23,30.09,5,2,8,0.00
2013-2-3,76,61,50,-100,-100,-100,0,0,100,30.14,30.04,7,2,13,0.00
2013-2-4,75,62,47,-100,-100,-100,0,0,100,30.12,30.00,4,2,8,0.00
2013-2-5,79,67,52,-100,-100,-100,0,0,100,30.05,29.98,5,2,9,0.00
2013-2-6,80,70,59,-100,-100,-100,0,0,100,30.07,30.00,7,2,12,0.00
2013-2-7,81,75,70,-100,-100,-100,0,0,100,30.05,29.92,6,4,11,0.00
2013-2-8,84,75,68,-100,-100,-100,0,0,100,30.00,29.88,8,4,14,0.00
2013-2-9,81,71,64,-100,-100,-100,0,0,100,30.15,29.99,7,3,12,0.00
2013-2-10,78,72,70,-100,-100,-100,0,0,100,30.23,30.12,8,6,14,0.00
2013-2-11,80,74,71,-100,-100,-100,0,0,100,30.19,30.08,6,4,10,0.00
2013-2-12,84,75,70,-100,-100,-100,0,0,100,30.09,29.94,10,5,18,0.00
2013-2-13,82,76,68,-100,-100,-100,0,0,100,29.99,29.86,12,5,19,0.00
2013-2-14,81,72,64,-100,-100,-100,0,0,100,29.98,29.83,12,4,17,0.66
2013-2-15,74,67,64,-100,-100,-100,0,0,100,29.99,29.92,7,3,10,0.38
2013-2-16,74,65,55,-100,-100,-100,0,0,100,30.06,29.85,12,6,20,0.04
2013-2-17,60,52,44,-100,-100,-100,0,0,100,30.28,30.06,12,7,16,0.00
2013-2-18,71,60,46,-100,-100,-100,0,0,100,30.29,30.18,9,5,13,0.02
2013-2-19,79,72,68,-100,-100,-100,0,0,100,30.18,30.06,7,4,12,0.02
2013-2-20,79,71,63,-100,-100,-100,0,0,100,30.09,29.98,7,2,13,0.00
2013-2-21,82,75,70,-100,-100,-100,0,0,100,30.06,29.97,6,2,11,0.00
2013-2-22,82,76,73,-100,-100,-100,0,0,100,30.07,29.99,7,5,15,0.00
2013-2-23,83,77,73,-100,-100,-100,0,0,100,30.03,29.89,10,6,18,0.00
2013-2-24,84,77,70,-100,-100,-100,0,0,100,29.96,29.86,8,3,11,0.00
2013-2-25,84,76,68,-100,-100,-100,0,0,100,29.89,29.78,9,4,15,0.00
2013-2-26,83,78,75,-100,-100,-100,0,0,100,29.87,29.77,11,7,17,0.00
2013-2-27,77,71,65,-100,-100,-100,0,0,100,29.94,29.83,6,3,9,0.38
2013-2-28,70,64,59,-100,-100,-100,0,0,100,29.98,29.88,8,4,12,0.00
2013-3-1,65,62,58,-100,-100,-100,0,0,100,29.97,29.88,7,3,10,0.00
2013-3-2,66,58,51,-100,-100,-100,0,0,100,30.01,29.93,12,6,20,0.00
2013-3-3,63,54,48,-100,-100,-100,0,0,100,30.13,29.94,9,5,18,0.01
2013-3-4,67,54,41,-100,-100,-100,0,0,100,30.18,30.09,10,4,14,0.00
2013-3-5,75,62,46,-100,-100,-100,0,0,100,30.15,30.06,7,2,11,0.00
2013-3-6,78,65,53,-100,-100,-100,0,0,100,30.07,29.91,11,6,17,0.00
2013-3-7,72,59,45,-100,-100,-100,0,0,100,30.16,30.05,7,4,12,0.00
2013-3-8,75,65,52,-100,-100,-100,0,0,100,30.17,30.07,9,4,12,0.00
2013-3-9,76,65,52,-100,-100,-100,0,0,100,30.16,30.08,8,4,11,0.00
2013-3-10,78,71,63,-100,-100,-100,0,0,100,30.14,30.04,9,5,13,0.00
2013-3-11,79,73,69,-100,-100,-100,0,0,100,30.09,29.93,8,5,15,0.00
2013-3-12,80,74,69,-100,-100,-100,0,0,100,29.98,29.88,10,6,14,0.00
2013-3-13,76,67,58,-100,-100,-100,0,0,100,30.09,29.95,10,5,15,0.00
2013-3-14,72,61,51,-100,-100,-100,0,0,100,30.17,30.06,12,6,17,0.00
2013-3-15,74,63,52,-100,-100,-100,0,0,100,30.22,30.12,8,4,12,0.00
2013-3-16,77,65,52,-100,-100,-100,0,0,100,30.17,30.06,6,2,10,0.00
2013-3-17,78,69,59,-100,-100,-100,0,0,100,30.12,30.00,6,2,10,0.00
2013-3-18,81,73,68,-100,-100,-100,0,0,100,30.06,29.94,9,4,18,0.09
2013-3-19,79,73,67,-100,-100,-100,0,0,100,29.98,29.78,11,3,16,0.01
2013-3-20,81,72,62,-100,-100,-100,0,0,100,29.95,29.78,10,2,15,0.01
2013-3-21,75,67,56,-100,-100,-100,0,0,100,29.92,29.81,8,4,12,0.00
2013-3-22,78,67,52,-100,-100,-100,0,0,100,29.98,29.88,6,3,12,0.00
2013-3-23,84,77,72,-100,-100,-100,0,0,100,29.96,29.78,13,5,19,0.03
2013-3-24,91,81,75,-100,-100,-100,0,0,100,29.86,29.65,15,7,22,0.01
2013-3-25,80,74,65,-100,-100,-100,0,0,100,29.96,29.72,9,5,15,0.06
2013-3-26,69,62,53,-100,-100,-100,0,0,100,30.18,29.96,11,7,16,0.00
2013-3-27,69,56,46,-100,-100,-100,0,0,100,30.21,30.14,10,5,15,0.00
2013-3-28,74,61,51,-100,-100,-100,0,0,100,30.23,30.14,7,4,12,0.00
2013-3-29,77,65,53,-100,-100,-100,0,0,100,30.26,30.17,8,4,11,0.00
2013-3-30,77,70,63,-100,-100,-100,0,0,100,30.23,30.12,6,3,10,0.00
2013-3-31,81,73,68,-100,-100,-100,0,0,100,30.17,30.01,8,4,13,0.00
2013-4-1,86,76,72,-100,-100,-100,0,0,100,30.03,29.91,12,5,20,0.00
2013-4-2,83,74,66,-100,-100,-100,0,0,100,30.04,29.96,6,4,10,0.00
2013-4-3,84,77,72,-100,-100,-100,0,0,100,30.04,29.96,6,3,12,0.00
2013-4-4,84,76,70,-100,-100,-100,0,0,100,30.02,29.87,10,5,16,1.02
2013-4-5,74,69,66,-100,-100,-100,0,0,100,29.95,29.80,9,4,18,0.76
2013-4-6,79,69,59,-100,-100,-100,0,0,100,30.06,29.90,9,6,13,0.01
2013-4-7,81,74,71,-100,-100,-100,0,0,100,30.11,30.00,8,5,14,0.00
2013-4-8,82,75,65,-100,-100,-100,0,0,100,30.10,30.02,6,3,10,0.00
2013-4-9,83,76,73,-100,-100,-100,0,0,100,30.12,30.02,8,5,15,0.00
2013-4-10,85,78,74,-100,-100,-100,0,0,100,30.07,29.97,7,5,13,0.00
2013-4-11,84,79,75,-100,-100,-100,0,0,100,29.99,29.87,7,6,16,0.00
2013-4-12,87,80,77,-100,-100,-100,0,0,100,29.92,29.84,13,6,18,0.07
2013-4-13,82,77,74,-100,-100,-100,0,0,100,29.94,29.85,8,3,15,0.28
2013-4-14,86,80,73,-100,-100,-100,0,0,100,29.93,29.86,6,3,11,0.00
2013-4-15,87,78,71,-100,-100,-100,0,0,100,30.03,29.89,12,3,18,1.34
2013-4-16,87,78,71,-100,-100,-100,0,0,100,30.09,29.99,7,3,11,0.01
2013-4-17,85,79,75,-100,-100,-100,0,0,100,30.07,29.98,8,4,11,0.00
2013-4-18,87,80,76,-100,-100,-100,0,0,100,30.03,29.95,7,4,15,0.00
2013-4-19,88,82,78,-100,-100,-100,0,0,100,30.01,29.93,8,5,12,0.00
2013-4-20,87,78,73,-100,-100,-100,0,0,100,30.04,29.91,13,4,16,1.47
2013-4-21,85,78,73,-100,-100,-100,0,0,100,30.06,29.95,9,3,14,0.00
2013-4-22,83,75,69,-100,-100,-100,0,0,100,30.01,29.89,10,2,11,0.97
2013-4-23,84,75,67,-100,-100,-100,0,0,100,30.06,29.92,11,6,17,0.01
2013-4-24,84,78,73,-100,-100,-100,0,0,100,30.10,30.00,8,4,11,0.00
2013-4-25,83,76,72,-100,-100,-100,0,0,100,30.17,30.05,6,4,11,0.00
2013-4-26,84,76,71,-100,-100,-100,0,0,100,30.18,30.09,7,4,14,0.00
2013-4-27,84,77,73,-100,-100,-100,0,0,100,30.17,30.05,7,5,14,0.00
2013-4-28,85,78,73,-100,-100,-100,0,0,100,30.09,29.96,7,6,14,0.00
2013-4-29,84,78,75,-100,-100,-100,0,0,100,30.00,29.90,7,4,10,0.00
2013-4-30,83,77,72,-100,-100,-100,0,0,100,29.97,29.89,8,3,10,0.08
2013-5-1,85,77,71,-100,-100,-100,0,0,100,29.97,29.89,6,2,10,0.27
2013-5-2,78,73,68,-100,-100,-100,0,0,100,29.92,29.77,16,4,17,4.36
2013-5-3,86,75,69,-100,-100,-100,0,0,100,29.79,29.66,8,3,11,0.20
2013-5-4,88,76,68,-100,-100,-100,0,0,100,29.77,29.65,8,4,12,0.01
2013-5-5,82,74,63,-100,-100,-100,0,0,100,29.90,29.73,8,5,12,0.00
2013-5-6,83,71,58,-100,-100,-100,0,0,100,29.98,29.89,6,2,8,0.00
2013-5-7,84,73,62,-100,-100,-100,0,0,100,30.04,29.95,8,3,12,0.00
2013-5-8,84,73,62,-100,-100,-100,0,0,100,30.10,30.01,6,2,9,0.00
2013-5-9,87,77,64,-100,-100,-100,0,0,100,30.11,30.04,6,2,11,0.00
2013-5-10,88,81,73,-100,-100,-100,0,0,100,30.11,30.00,7,3,10,0.01
2013-5-11,88,80,73,-100,-100,-100,0,0,100,30.05,29.96,9,4,15,0.00
2013-5-12,89,79,72,-100,-100,-100,0,0,100,30.04,29.93,10,3,15,1.02
2013-5-13,72,72,72,-100,-100,-100,0,0,100,30.03,30.03,1,1,3,1.02
2013-5-16,82,77,75,-100,-100,-100,0,0,100,30.03,30.01,6,4,11,0.00
2013-5-17,87,80,74,-100,-100,-100,0,0,100,30.06,29.98,7,3,12,0.63
2013-5-18,86,80,74,-100,-100,-100,0,0,100,30.07,30.00,6,3,11,0.67
2013-5-19,86,80,76,-100,-100,-100,0,0,100,30.06,29.97,7,4,11,0.00
2013-5-20,82,77,72,-100,-100,-100,0,0,100,30.04,29.94,8,3,13,1.98
2013-5-21,83,77,72,-100,-100,-100,0,0,100,30.01,29.90,8,3,12,0.20
2013-5-22,85,77,73,-100,-100,-100,0,0,100,29.95,29.86,7,2,13,0.49
2013-5-23,91,81,74,-100,-100,-100,0,0,100,29.97,29.88,7,3,13,0.00
2013-5-24,89,82,76,-100,-100,-100,0,0,100,30.02,29.91,7,2,11,0.00
2013-5-25,87,80,73,-100,-100,-100,0,0,100,30.12,30.01,8,5,17,0.02
2013-5-26,87,80,76,-100,-100,-100,0,0,100,30.14,30.07,8,5,14,0.00
2013-5-27,87,79,75,-100,-100,-100,0,0,100,30.12,30.03,9,6,17,0.40
2013-5-28,84,78,75,-100,-100,-100,0,0,100,30.08,30.01,10,6,16,0.17
2013-5-29,80,76,72,-100,-100,-100,0,0,100,30.06,30.00,12,6,23,2.22
2013-5-30,83,78,74,-100,-100,-100,0,0,100,30.04,29.97,12,8,21,0.13
2013-5-31,84,79,76,-100,-100,-100,0,0,100,30.03,29.97,10,6,16,0.43
2013-6-1,84,78,74,-100,-100,-100,0,0,100,30.00,29.93,7,2,11,0.45
2013-6-2,87,79,72,-100,-100,-100,0,0,100,29.97,29.89,8,2,10,0.01
2013-6-3,88,79,72,-100,-100,-100,0,0,100,30.00,29.88,8,2,12,0.19
2013-6-4,86,79,74,-100,-100,-100,0,0,100,30.01,29.92,6,1,9,0.13
2013-6-5,84,81,79,-100,-100,-100,0,0,100,29.99,29.86,7,3,11,0.01
2013-6-6,87,80,76,-100,-100,-100,0,0,100,29.87,29.75,13,7,24,1.76
2013-6-7,91,78,75,-100,-100,-100,0,0,100,29.96,29.81,10,4,15,0.51
2013-6-8,89,80,75,-100,-100,-100,0,0,100,30.07,29.93,8,2,11,0.00
2013-6-9,89,83,79,-100,-100,-100,0,0,100,30.08,30.00,8,5,14,0.01
2013-6-10,89,83,80,-100,-100,-100,0,0,100,30.06,29.97,8,4,13,0.00
2013-6-11,88,82,78,-100,-100,-100,0,0,100,30.06,29.97,6,2,14,1.46
2013-6-12,88,81,77,-100,-100,-100,0,0,100,30.04,29.98,5,1,8,0.00
2013-6-13,89,81,75,-100,-100,-100,0,0,100,30.01,29.91,6,2,11,0.00
2013-6-14,93,81,74,-100,-100,-100,0,0,100,29.94,29.84,9,2,13,0.10
2013-6-15,90,82,75,-100,-100,-100,0,0,100,30.02,29.89,6,2,9,0.00
2013-6-16,90,83,74,-100,-100,-100,0,0,100,30.06,29.98,6,2,10,0.15
2013-6-17,91,85,80,-100,-100,-100,0,0,100,30.05,29.97,5,2,9,0.00
2013-6-18,90,84,78,-100,-100,-100,0,0,100,30.04,29.95,6,3,8,0.00
2013-6-19,91,84,79,-100,-100,-100,0,0,100,30.01,29.95,5,2,10,0.00
2013-6-20,90,82,71,-100,-100,-100,0,0,100,30.05,29.98,12,2,12,1.22
2013-6-21,90,84,81,-100,-100,-100,0,0,100,30.07,30.00,6,3,8,0.00
2013-6-22,90,84,80,-100,-100,-100,0,0,100,30.06,30.00,6,4,10,0.00
2013-6-23,90,83,76,-100,-100,-100,0,0,100,30.09,30.01,8,4,11,0.00
2013-6-24,90,84,79,-100,-100,-100,0,0,100,30.12,30.04,8,5,13,0.19
2013-6-26,80,80,80,-100,-100,-100,0,0,100,29.91,29.91,3,3,5,0.00
2013-6-27,80,80,80,-100,-100,-100,0,0,100,29.91,29.91,3,3,5,0.00
2013-6-28,80,80,80,-100,-100,-100,0,0,100,29.91,29.91,3,3,5,0.00
2013-6-29,80,80,80,-100,-100,-100,0,0,100,29.91,29.91,3,3,5,0.00
2013-6-30,80,80,80,-100,-100,-100,0,0,100,29.91,29.91,4,3,5,0.00
2013-7-1,89,83,75,-100,-100,-100,0,0,100,30.00,29.89,12,4,21,0.26
2013-7-2,83,81,79,-100,-100,-100,0,0,100,30.07,30.03,6,2,10,0.00
2013-7-3,90,82,78,-100,-100,-100,0,0,100,30.09,30.01,8,4,11,0.16
2013-7-4,90,84,78,-100,-100,-100,0,0,100,30.12,30.04,9,5,15,0.00
2013-7-5,86,82,78,-100,-100,-100,0,0,100,30.11,30.02,9,5,13,0.35
2013-7-6,89,83,80,-100,-100,-100,0,0,100,30.09,30.00,9,6,14,0.04
2013-7-7,90,83,77,-100,-100,-100,0,0,100,30.06,29.98,7,5,11,0.00
2013-7-8,90,83,80,-100,-100,-100,0,0,100,30.11,30.04,8,4,11,0.00
2013-7-9,88,81,75,-100,-100,-100,0,0,100,30.10,30.01,8,3,11,0.02
2013-7-10,85,79,72,-100,-100,-100,0,0,100,30.05,29.97,6,2,12,1.17
2013-7-11,89,82,79,-100,-100,-100,0,0,100,30.01,29.91,5,2,9,0.00
2013-7-12,90,80,76,-100,-100,-100,0,0,100,29.93,29.87,12,1,14,0.00
2013-7-13,87,76,73,-100,-100,-100,0,0,100,30.00,29.89,6,1,9,1.44
2013-7-14,89,79,73,-100,-100,-100,0,0,100,30.06,29.95,8,3,11,0.56
2013-7-15,89,80,74,-100,-100,-100,0,0,100,30.06,29.98,8,3,14,0.13
2013-7-16,84,79,74,-100,-100,-100,0,0,100,30.12,30.01,12,6,20,0.26
2013-7-17,83,78,74,-100,-100,-100,0,0,100,30.12,30.02,9,3,10,15.98
2013-7-18,83,77,73,-100,-100,-100,0,0,100,30.09,30.03,9,1,12,0.92
2013-7-19,87,81,74,-100,-100,-100,0,0,100,30.10,30.01,5,2,10,0.69
2013-7-20,88,82,78,-100,-100,-100,0,0,100,30.09,30.00,9,3,13,0.00
2013-7-21,90,81,76,-100,-100,-100,0,0,100,30.12,30.01,4,1,9,0.01
2013-7-22,90,83,79,-100,-100,-100,0,0,100,30.11,30.03,6,2,10,0.00
2013-7-23,90,84,75,-100,-100,-100,0,0,100,30.07,29.94,7,3,14,0.00
2013-7-24,94,82,77,-100,-100,-100,0,0,100,29.99,29.87,7,3,13,0.00
2013-7-25,94,84,74,-100,-100,-100,0,0,100,29.98,29.88,6,3,11,0.00
2013-7-26,94,83,78,-100,-100,-100,0,0,100,29.98,29.90,9,4,13,0.34
2013-7-27,88,80,77,-100,-100,-100,0,0,100,29.97,29.90,7,1,8,0.29
2013-7-28,88,80,76,-100,-100,-100,0,0,100,30.04,29.92,5,1,7,0.10
2013-7-29,92,83,76,-100,-100,-100,0,0,100,30.10,29.98,8,2,14,0.09
2013-7-30,91,84,74,-100,-100,-100,0,0,100,30.12,30.04,6,3,10,6.96
2013-7-31,91,85,81,-100,-100,-100,0,0,100,30.07,29.97,7,4,11,2.65
2013-8-1,90,84,80,-100,-100,-100,0,0,100,30.03,29.91,7,4,13,0.00
2013-8-2,88,81,75,-100,-100,-100,0,0,100,30.01,29.88,8,2,20,0.32
2013-8-3,86,78,73,-100,-100,-100,0,0,100,30.12,30.00,10,1,17,0.55
2013-8-4,92,81,75,-100,-100,-100,0,0,100,30.08,29.94,8,1,12,0.06
2013-8-5,90,81,75,-100,-100,-100,0,0,100,30.00,29.91,5,1,10,0.19
2013-8-6,90,82,76,-100,-100,-100,0,0,100,29.95,29.86,4,1,9,0.00
2013-8-7,90,84,77,-100,-100,-100,0,0,100,29.95,29.87,7,2,11,0.00
2013-8-8,92,85,82,-100,-100,-100,0,0,100,29.98,29.89,8,4,13,0.01
2013-8-9,90,83,80,-100,-100,-100,0,0,100,30.03,29.92,8,4,14,0.02
2013-8-10,92,85,81,-100,-100,-100,0,0,100,30.07,30.00,8,4,13,0.00
2013-8-11,92,86,82,-100,-100,-100,0,0,100,30.09,30.03,7,4,12,0.00
2013-8-12,92,85,81,-100,-100,-100,0,0,100,30.07,29.97,6,3,10,0.00
2013-8-13,92,85,81,-100,-100,-100,0,0,100,30.01,29.92,4,2,10,0.00
2013-8-14,92,85,81,-100,-100,-100,0,0,100,29.98,29.89,4,2,10,0.00
2013-8-15,87,81,75,-100,-100,-100,0,0,100,30.03,29.93,9,2,9,0.96
2013-8-16,92,85,80,-100,-100,-100,0,0,100,30.01,29.95,6,2,9,0.00
2013-8-17,92,86,82,-100,-100,-100,0,0,100,30.04,29.97,8,3,12,0.00
2013-8-18,91,85,81,-100,-100,-100,0,0,100,30.04,29.95,8,5,15,0.06
2013-8-19,92,86,82,-100,-100,-100,0,0,100,30.04,29.93,8,4,14,0.00
2013-8-20,92,85,80,-100,-100,-100,0,0,100,30.03,29.95,8,4,15,0.00
2013-8-21,90,84,80,-100,-100,-100,0,0,100,30.04,29.96,9,5,14,0.23
2013-8-22,91,86,80,-100,-100,-100,0,0,100,30.03,29.92,7,4,15,0.00
2013-8-23,92,84,81,-100,-100,-100,0,0,100,29.98,29.90,8,2,11,0.04
2013-8-24,92,85,79,-100,-100,-100,0,0,100,30.08,29.94,6,3,11,0.12
2013-8-25,87,81,75,-100,-100,-100,0,0,100,30.12,30.00,7,2,10,0.38
2013-8-26,90,82,75,-100,-100,-100,0,0,100,30.08,29.97,7,2,10,0.03
2013-8-27,84,78,73,-100,-100,-100,0,0,100,30.02,29.93,6,1,8,0.69
2013-8-28,88,82,78,-100,-100,-100,0,0,100,30.00,29.92,5,2,8,0.06
2013-8-29,90,82,74,-100,-100,-100,0,0,100,29.99,29.89,6,2,9,0.00
2013-8-30,90,83,75,-100,-100,-100,0,0,100,29.97,29.86,7,2,11,0.00
2013-8-31,90,81,75,-100,-100,-100,0,0,100,29.95,29.88,5,2,10,0.03
2013-9-1,90,80,74,-100,-100,-100,0,0,100,29.96,29.89,4,1,7,0.01
2013-9-2,92,79,74,-100,-100,-100,0,0,100,29.98,29.91,8,1,10,0.05
2013-9-3,91,81,72,-100,-100,-100,0,0,100,29.98,29.90,6,2,12,0.01
2013-9-4,85,83,80,-100,-100,-100,0,0,100,30.03,29.91,7,1,10,0.02
2013-9-5,92,85,82,-100,-100,-100,0,0,100,30.03,29.96,6,3,9,0.03
2013-9-6,92,85,81,-100,-100,-100,0,0,100,30.00,29.89,6,3,10,0.00
2013-9-7,85,79,75,-100,-100,-100,0,0,100,29.95,29.86,9,1,12,0.14
2013-9-8,89,80,73,-100,-100,-100,0,0,100,29.91,29.82,6,1,8,0.00
2013-9-9,90,83,75,-100,-100,-100,0,0,100,29.96,29.86,7,3,11,0.00
2013-9-10,91,84,80,-100,-100,-100,0,0,100,30.00,29.92,9,4,13,0.00
2013-9-11,83,81,76,-100,-100,-100,0,0,100,30.03,29.93,8,3,11,0.19
2013-9-12,86,81,77,-100,-100,-100,0,0,100,29.98,29.86,3,1,8,0.01
2013-9-13,90,82,75,-100,-100,-100,0,0,100,29.87,29.77,6,2,9,0.00
2013-9-14,91,83,75,-100,-100,-100,0,0,100,29.93,29.79,6,2,10,0.00
2013-9-15,86,82,78,-100,-100,-100,0,0,100,30.01,29.89,10,3,14,0.04
2013-9-16,87,82,79,-100,-100,-100,0,0,100,30.01,29.92,8,4,14,0.14
2013-9-17,81,80,77,-100,-100,-100,0,0,100,30.00,29.88,7,4,17,0.15
2013-9-18,87,81,77,-100,-100,-100,0,0,100,29.98,29.88,5,2,7,0.11
2013-9-19,87,81,74,78,74,-100,94,80,71,29.97,29.89,8,4,13,0.11
2013-9-20,86,82,78,75,71,68,87,69,58,29.95,29.86,9,5,12,0.00
2013-9-21,86,82,79,74,73,71,80,73,65,29.88,29.74,5,3,11,0.00
2013-9-22,90,83,77,75,-80,-100,92,9,78,29.83,29.72,7,2,11,0.25
2013-9-23,88,81,76,-100,-100,-100,0,0,100,29.94,29.82,11,1,15,0.50
2013-9-24,90,81,76,-100,-100,-100,0,0,100,29.93,29.84,10,3,13,0.03
2013-9-25,89,80,73,-100,-100,-100,0,0,100,29.88,29.77,8,2,14,0.20
2013-9-26,90,80,76,-100,-100,-100,0,0,100,29.83,29.76,9,3,13,0.44
2013-9-27,88,81,75,-100,-100,-100,0,0,100,29.88,29.79,9,3,13,0.00
2013-9-28,88,80,73,-100,-100,-100,0,0,100,29.92,29.84,9,3,14,0.16
2013-9-29,89,81,74,-100,-100,-100,0,0,100,29.92,29.84,6,3,9,0.00
2013-9-30,88,82,77,-100,-100,-100,0,0,100,29.97,29.87,5,2,9,0.00
2013-10-1,88,82,77,-100,-100,-100,0,0,100,29.99,29.92,7,4,12,0.00
2013-10-2,87,83,80,-100,-100,-100,0,0,100,30.00,29.93,7,5,14,0.00
2013-10-3,89,82,78,-100,-100,-100,0,0,100,30.01,29.91,7,3,11,0.00
2013-10-4,88,82,78,-100,-100,-100,0,0,100,30.01,29.94,5,3,9,0.00
2013-10-5,89,81,72,-100,-100,-100,0,0,100,29.99,29.89,6,2,10,0.00
2013-10-6,88,82,77,-100,-100,-100,0,0,100,29.93,29.83,5,2,9,0.00
2013-10-7,91,79,72,-100,-100,-100,0,0,100,29.86,29.77,13,2,27,0.06
2013-10-8,90,80,76,-100,-100,-100,0,0,100,29.90,29.81,6,2,13,0.01
2013-10-9,85,78,72,-100,-100,-100,0,0,100,29.95,29.87,9,3,11,0.00
2013-10-10,87,80,72,-100,-100,-100,0,0,100,29.97,29.90,8,5,12,0.00
2013-10-11,86,80,72,-100,-100,-100,0,0,100,29.97,29.90,7,4,13,0.00
2013-10-12,86,78,68,-100,-100,-100,0,0,100,29.99,29.91,6,2,9,0.00
2013-10-13,86,79,72,-100,-100,-100,0,0,100,30.01,29.93,8,3,12,0.00
2013-10-14,87,79,70,-100,-100,-100,0,0,100,29.98,29.87,6,3,11,0.00
2013-10-15,86,79,72,-100,-100,-100,0,0,100,29.92,29.83,7,3,11,0.00
2013-10-16,87,79,72,-100,-100,-100,0,0,100,29.92,29.85,5,2,9,0.00
2013-10-17,88,80,71,-100,-100,-100,0,0,100,29.93,29.86,5,2,10,0.00
2013-10-18,89,81,73,-100,-100,-100,0,0,100,29.95,29.87,7,2,11,0.00
2013-10-19,89,82,78,-100,-100,-100,0,0,100,29.93,29.84,5,2,10,0.00
2013-10-20,88,82,78,-100,-100,-100,0,0,100,29.93,29.84,6,2,10,0.00
2013-10-21,90,84,79,-100,-100,-100,0,0,100,29.97,29.87,5,2,9,0.00
2013-10-22,91,83,78,-100,-100,-100,0,0,100,29.93,29.80,8,3,14,0.00
2013-10-23,90,81,76,76,-60,-100,94,21,89,29.92,29.78,10,4,14,0.00
2013-10-24,81,76,71,-100,-100,-100,0,0,100,30.06,29.90,8,5,14,0.00
2013-10-25,83,78,70,-100,-100,-100,0,0,100,30.11,30.03,9,6,15,0.00
2013-10-26,84,78,71,-100,-100,-100,0,0,100,30.11,30.01,7,4,13,0.00
2013-10-27,85,74,65,-100,-100,-100,0,0,100,30.06,29.98,5,3,12,0.00
2013-10-28,85,79,75,-100,-100,-100,0,0,100,30.10,30.01,6,4,9,0.00
2013-10-29,86,80,74,-100,-100,-100,0,0,100,30.14,30.05,8,5,15,0.00
2013-10-30,86,80,77,-100,-100,-100,0,0,100,30.15,30.04,7,6,13,0.00
2013-10-31,86,80,75,-100,-100,-100,0,0,100,30.07,29.95,7,5,12,0.12
2013-11-1,87,81,78,-100,-100,-100,0,0,100,29.98,29.85,6,3,14,0.00
2013-11-2,90,80,70,-100,-100,-100,0,0,100,29.90,29.76,7,3,11,0.00
2013-11-3,82,75,67,-100,-100,-100,0,0,100,29.98,29.86,11,7,21,0.00
2013-11-4,81,77,74,-100,-100,-100,0,0,100,30.04,29.97,13,9,18,0.03
2013-11-5,82,79,75,-100,-100,-100,0,0,100,30.06,29.98,11,8,20,0.00
2013-11-6,85,80,76,-100,-100,-100,0,0,100,30.03,29.95,9,5,17,0.00
2013-11-7,85,77,70,-100,-100,-100,0,0,100,29.98,29.88,8,3,9,0.00
2013-11-8,85,77,72,-100,-100,-100,0,0,100,30.00,29.90,12,6,17,0.45
2013-11-9,79,76,74,-100,-100,-100,0,0,100,30.08,29.98,11,8,18,1.31
2013-11-10,84,79,75,-100,-100,-100,0,0,100,30.09,30.01,8,5,13,0.00
2013-11-11,84,79,77,-100,-100,-100,0,0,100,30.08,30.01,6,4,10,0.13
2013-11-12,84,78,74,-100,-100,-100,0,0,100,30.04,29.93,6,3,9,0.00
2013-11-13,77,72,70,-100,-100,-100,0,0,100,30.18,29.96,14,9,23,0.06
2013-11-14,78,73,67,-100,-100,-100,0,0,100,30.21,30.12,11,8,16,0.02
2013-11-15,82,77,73,-100,-100,-100,0,0,100,30.12,30.00,8,6,15,0.02
2013-11-16,82,78,73,-100,-100,-100,0,0,100,30.07,30.00,8,5,15,0.05
2013-11-17,84,79,76,-100,-100,-100,0,0,100,30.06,29.97,7,4,13,0.00
2013-11-18,85,78,74,-100,-100,-100,0,0,100,30.01,29.89,4,1,6,0.00
2013-11-19,83,75,72,-100,-100,-100,0,0,100,29.92,29.83,9,2,13,0.28
2013-11-20,84,76,70,-100,-100,-100,0,0,100,30.04,29.90,5,1,7,0.00
2013-11-21,81,76,72,-100,-100,-100,0,0,100,30.12,30.02,8,4,16,0.23
2013-11-22,82,78,76,-100,-100,-100,0,0,100,30.14,30.05,8,7,15,0.00
2013-11-23,84,78,75,-100,-100,-100,0,0,100,30.06,29.95,7,4,13,0.00
2013-11-24,82,75,69,-100,-100,-100,0,0,100,30.11,29.97,13,7,25,0.20
2013-11-25,75,73,72,-100,-100,-100,0,0,100,30.17,30.09,12,9,23,0.20
2013-12-1,77,77,77,-100,-100,-100,0,0,100,30.09,30.09,2,2,4,0.00
2013-12-2,77,77,77,-100,-100,-100,0,0,100,30.09,30.09,2,2,4,0.00
2013-12-3,77,77,77,-100,-100,-100,0,0,100,30.09,30.09,2,2,4,0.00
2013-12-4,77,77,77,-100,-100,-100,0,0,100,30.09,30.09,2,2,4,0.00
2013-12-5,77,77,76,-100,-100,-100,0,0,100,30.11,30.06,7,3,15,0.00
2013-12-6,83,77,71,-100,-100,-100,0,0,100,30.15,30.07,8,2,14,0.00
2013-12-7,84,78,71,-100,-100,-100,0,0,100,30.16,30.10,7,4,14,0.00
2013-12-8,84,78,72,-100,-100,-100,0,0,100,30.18,30.09,10,4,18,0.00
2013-12-9,84,79,76,-100,-100,-100,0,0,100,30.16,30.07,6,3,13,0.00
2013-12-10,84,78,74,-100,-100,-100,0,0,100,30.12,30.04,4,2,10,0.00
2013-12-11,84,77,72,-100,-100,-100,0,0,100,30.16,30.09,4,1,9,0.00
2013-12-12,80,73,70,-100,-100,-100,0,0,100,30.18,30.10,12,5,19,0.00
2013-12-13,79,74,71,-100,-100,-100,0,0,100,30.16,30.06,9,7,17,0.00
2013-12-14,83,78,75,-100,-100,-100,0,0,100,30.07,29.95,9,4,14,0.00
2013-12-15,84,77,71,-100,-100,-100,0,0,100,30.02,29.89,9,4,15,0.00
2013-12-16,74,68,62,-100,-100,-100,0,0,100,30.12,30.00,7,4,11,0.00
2013-12-17,78,68,59,-100,-100,-100,0,0,100,30.15,30.06,7,4,12,0.00
2013-12-18,77,67,60,-100,-100,-100,0,0,100,30.20,30.11,10,5,19,0.00
2013-12-19,79,72,62,-100,-100,-100,0,0,100,30.21,30.12,7,4,12,0.00
2013-12-20,81,77,74,-100,-100,-100,0,0,100,30.16,30.07,8,6,14,0.00
2013-12-21,83,78,76,-100,-100,-100,0,0,100,30.12,30.03,7,4,14,0.00
2013-12-22,84,79,75,-100,-100,-100,0,0,100,30.13,30.05,6,4,14,0.00
2013-12-23,84,78,70,-100,-100,-100,0,0,100,30.14,30.07,6,3,15,0.00
2013-12-24,83,72,67,-100,-100,-100,0,0,100,30.14,30.05,11,4,21,0.00
2013-12-25,77,73,71,-100,-100,-100,0,0,100,30.14,30.06,10,7,18,0.00
2013-12-26,79,75,72,-100,-100,-100,0,0,100,30.14,30.03,7,5,14,0.00
2013-12-27,82,77,75,-100,-100,-100,0,0,100,30.16,30.06,7,5,13,0.00
2013-12-28,80,77,75,-100,-100,-100,0,0,100,30.15,30.00,9,6,15,0.00
2013-12-29,81,78,75,-100,-100,-100,0,0,100,30.01,29.90,10,5,17,0.00
2013-12-30,78,73,70,-100,-100,-100,0,0,100,30.11,29.95,6,3,8,0.00
2013-12-31,79,73,68,-100,-100,-100,0,0,100,30.20,30.07,9,6,15,0.00
2014-1-1,81,76,74,-100,-100,-100,0,0,100,30.17,30.01,8,4,14,0.00
2014-1-2,85,78,72,-100,-100,-100,0,0,100,30.01,29.83,9,5,19,0.00